Home   Weather   Olsztyn   Past weeks

Flag for Poland Past Weather in Olsztyn, Poland — Yesterday and Last 2 Weeks

Now
71 °F

Mild.


Feels Like: 76 °F
Forecast: 61 / 82 °F
Wind: 2 mph from Southeast

Location: Ketrzyn

Current Time: Aug 17, 2017 at 8:00:53 pm

Latest Report: Aug 17, 2017 at 7:00 pm


Visibility: 19 mi

Pressure: 30.11 "Hg

Humidity: 59%

Dew Point: 56 °F

Location of OlsztynLocation

Past Weather in Olsztyn — Graph

°F

Olsztyn Temperature Yesterday

Maximum temperature yesterday: 81 °F (at 4:00 pm)
Minimum temperature yesterday: 53 °F (at 5:00 am)
Average temperature yesterday: 69 °F

High & Low Weather Summary for the Past Weeks

 TemperatureHumidityPressure
High81 °F (Aug 11, 5:00 pm)99% (Aug 11, 5:00 am)30.34 "Hg (Aug 11, 5:00 am)
Low47 °F (Aug 15, 5:00 am)41% (Aug 8, 2:00 pm)29.74 "Hg (Aug 4, 1:00 am)
Average66 °F73%30.05 "Hg
* Reported Aug 2 6:00 pm — Aug 17 6:00 pm, Olsztyn. Weather by CustomWeather, © 2017

Note: Actual official high and low records may vary slightly from our data, if they occured in-between our weather recording intervals... More about our weather records

Advertising

Olsztyn Weather History for the Previous 24 Hours

Scroll right to see more
 ConditionsComfort  
Time TempWeatherWind HumidityBarometerVisibility
6:00 pm
Thu, Aug 17
74 °FMild.2 mph53%30.11 "Hg25 mi
5:00 pm75 °FMild.2 mph51%30.12 "Hg25 mi
4:00 pm75 °FMild.2 mph50%30.12 "Hg22 mi
3:00 pm74 °FMild.1 mph49%30.13 "Hg19 mi
2:00 pm72 °FMild.2 mph58%30.14 "Hg22 mi
1:00 pm73 °FMild.3 mph65%30.16 "Hg19 mi
12:00 pm70 °FMild.5 mph70%30.17 "Hg15 mi
11:00 am68 °FMild.5 mph76%30.18 "Hg17 mi
10:00 am65 °FMild.2 mph81%30.18 "Hg19 mi
9:00 am63 °FMild.2 mph88%30.16 "Hg13 mi
8:00 am62 °FCool.5 mph90%30.15 "Hg15 mi
7:00 am61 °FCool.2 mph95%30.16 "Hg14 mi
6:00 am60 °FCool.1 mph94%30.15 "Hg12 mi
5:00 am60 °FCool.2 mph95%30.14 "Hg10 mi
4:00 am62 °FCool.3 mph94%30.12 "Hg12 mi
3:00 am62 °FFog.1 mph96%30.12 "Hg3 mi
2:00 am61 °FCool.2 mph95%30.11 "Hg4 mi
1:00 am62 °FRain showers. Overcast.1 mph93%30.11 "Hg5 mi
12:00 am62 °FCool.2 mph91%30.12 "Hg8 mi
11:00 pm
Wed, Aug 16
62 °FMild.3 mph88%30.12 "Hg10 mi
10:00 pm68 °FMild.3 mph72%30.10 "Hg19 mi
9:00 pm69 °FMild.6 mph63%30.08 "Hg19 mi
8:00 pm71 °FMild.3 mph59%30.08 "Hg22 mi
Weather by CustomWeather, © 2017

See weather overviewHow to use our weather pages